WGS F8 (USA 272)

Last updated on Sat Apr 13 2024 01:02:39 GMT+0100 (British Summer Time)

1 41879U 16075A 24103.51785654 -.00000211 00000+0 00000+0 0 9992 2 41879 0.0138 144.9955 0000030 78.2971 314.1339 1.00273046 26844
UTC large
Height (km)
Speed (km/s)
/
Latitude / Longitude
Inclination (degrees)
Orbital Period (minutes)
Azimuth
Elevation
Range (km)
Doppler Factor

Next 0 passes for location: London (51.5072 / 0.1276)

Sorry there are no passes over London.